COSMOS 1436

Satellite information

Favourite Embed

Satellite Type and Status

PAYLOADIN ORBIT

Key statistics

Satellite COSMOS 1436 at a glance.

Uptime

15669

Days in orbit

Revolutions

≈ 12.6

Per day

Orbit

LEO

Low Earth Orbit

Inclination

74.0

Latest

Satellite identification and parameters

Extended collection of information and parameters for COSMOS 1436.

Object identification

Identified? True

Debris? False

Object name: COSMOS 1436

International designator: 1983-002H

Object number (NORAD): 13768

Object ID (CCSDS): 13768

Country: COMMONWEALTH OF INDEPENDENT STATES (CIS)

Current information (Y/N): Y

RCS size: MEDIUM

Orbital parameters

Period: 114.491 minutes

Inclination: 74.0246 deg

SMA: 7810.432 km

Apoapsis: 1466.666 km

Periapsis: 1397.927 km

RAAN: 276.3719 deg

Eccentricy: 0.00440042

Argument of periapsis: 334.2957 deg

Mean anomaly: 143.528 deg

Mean motion: 12.57738086 rev/day

Mean motion (dot): 0.00000006 rev/day2

B* drag term: 0.00013477466 1/REarth

Two-line elements (TLE)

Creation date: Dec. 12, 2025, 10:14 a.m.

Reference frame: TEME

Reference center: EARTH

Epoch: Dec. 12, 2025, 6:47 a.m. UTC

TLE line 0: 0 COSMOS 1436

TLE line 1: 1 13768U 83002H 25346.28281093 .00000006 00000-0 13477-3 0 9992

TLE line 2: 2 13768 74.0246 276.3719 0044004 334.2957 143.5280 12.57738086969510

Live tracking on map

Real-time ground track for satellite COSMOS 1436.

In-orbit conjunctions

A list of the most updated potential collisions computed for object COSMOS 1436.

Target Orbit TCA Probability of collision Miss distance Type
OPS 6630 DEB SSO 2025-01-01 02:15:52 0.0002340334 265.0 (m) DEBRIS
SL-8 DEB LEO 2024-08-28 23:27:06 0.0001096136 686.0 (m) DEBRIS

Associated space launch

Military communications satellites

COSMOS 1436 was lifted into orbit during the mission ‘Kosmos-3M | Strela-1M 257-264’, on board a Kosmos-3M space rocket.

The launch took place on Jan. 19, 1983, 2:25 a.m. from 132/1 (132L).

For more information about the launch, click the button.

Launch to space Kosmos-3M | Strela-1M 257-264
Kosmos-3M | Strela-1M 257-264

Agency: N/A

Status: Launch Successful

Launch date: Jan. 19, 1983, 2:25 a.m. UTC

Rocket: Kosmos-3M

Launch pad: 132/1 (132L)

Location: Plesetsk Cosmodrome, Russian Federation

...

Latest news about this satellite

There are no fresh news available about this satellite. Check back as we update our databases every day.


Newsletter sign-up

Weekly statistics, charts and insights to help you stay on top of the space industry.